2023/09/20 00:00:00, 0.4,21.7
2023/09/20 00:10:00, 0.4,21.5
2023/09/20 00:20:00, 0.5,21.5
2023/09/20 00:30:00, 0.4,21.5
2023/09/20 00:40:00, 0.5,21.5
2023/09/20 00:50:00, 0.4,21.7
2023/09/20 01:00:00, 0.5,21.4
2023/09/20 01:10:00, 0.5,21.7
2023/09/20 01:20:00, 0.4,21.3
2023/09/20 01:30:00, 0.4,21.5
2023/09/20 01:40:00, 0.5,21.3
2023/09/20 01:50:00, 0.4,21.0
2023/09/20 02:00:00, 0.5,21.3
2023/09/20 02:10:00, 0.5,21.5
2023/09/20 02:20:00, 0.4,21.1
2023/09/20 02:30:00, 0.5,21.1
2023/09/20 02:40:00, 0.5,21.1
2023/09/20 02:50:00, 0.4,21.2
2023/09/20 03:00:00, 0.4,21.2
2023/09/20 03:10:00, 0.5,21.0
2023/09/20 03:20:00, 0.5,21.0
2023/09/20 03:30:00, 0.5,21.2
2023/09/20 03:40:00, 0.4,21.0
2023/09/20 03:50:00, 0.4,20.9
2023/09/20 04:00:00, 0.5,20.7
2023/09/20 04:10:00, 0.5,20.8
2023/09/20 04:20:00, 0.5,20.7
2023/09/20 04:30:00, 0.5,20.5
2023/09/20 04:40:00, 0.5,20.4
2023/09/20 04:50:00, 0.5,20.3
2023/09/20 05:00:00, 0.5,20.2
2023/09/20 05:10:00, 0.4,20.4
2023/09/20 05:20:00, 0.4,20.3
2023/09/20 05:30:00, 0.4,20.4
2023/09/20 05:40:00, 0.5,20.3
2023/09/20 05:50:00, 0.5,20.3
2023/09/20 06:00:00, 0.3,20.3
2023/09/20 06:10:00, 0.4,20.5
2023/09/20 06:20:00, 0.5,20.8
2023/09/20 06:30:00, 0.4,20.7
2023/09/20 06:40:00, 0.4,20.9
2023/09/20 06:50:00, 0.5,21.1
2023/09/20 07:00:00, 0.5,21.4
2023/09/20 07:10:00, 0.4,21.5
2023/09/20 07:20:00, 0.5,21.7
2023/09/20 07:30:00, 0.4,22.8
2023/09/20 07:40:00, 0.5,23.6
2023/09/20 07:50:00, 0.5,24.0
2023/09/20 08:00:00, 0.5,26.1
2023/09/20 08:10:00, 0.5,27.4
2023/09/20 08:20:00, 0.5,25.8
2023/09/20 08:30:00, 0.5,25.9
2023/09/20 08:40:00, 0.5,27.6
2023/09/20 08:50:00, 0.5,28.8
2023/09/20 09:00:00, 0.5,30.2
2023/09/20 09:10:00, 0.5,29.9
2023/09/20 09:20:00, 0.6,27.9
2023/09/20 09:30:00, 0.7,26.5
2023/09/20 09:40:00, 0.5,26.8
2023/09/20 09:50:00, 0.5,26.9
2023/09/20 10:00:00, 0.5,27.7
2023/09/20 10:10:00, 0.5,28.2
2023/09/20 10:20:00, 0.5,28.9
2023/09/20 10:30:00, 0.6,29.6
2023/09/20 10:40:00, 0.8,29.4
2023/09/20 10:50:00, 0.6,30.1
2023/09/20 11:00:00, 0.6,30.4
2023/09/20 11:10:00, 0.7,29.7
2023/09/20 11:20:00, 0.6,28.4
2023/09/20 11:30:00, 0.7,27.9
2023/09/20 11:40:00, 0.7,28.2
2023/09/20 11:50:00, 0.7,28.5
2023/09/20 12:00:00, 0.7,28.7
2023/09/20 12:10:00, 0.6,28.6
2023/09/20 12:20:00, 0.7,28.6
2023/09/20 12:30:00, 0.6,28.3
2023/09/20 12:40:00, 0.6,27.9
2023/09/20 12:50:00, 0.5,27.6
2023/09/20 13:00:00, 0.4,26.9
2023/09/20 13:10:00, 0.5,26.8
2023/09/20 13:20:00, 0.5,26.9
2023/09/20 13:30:00, 0.5,26.7
2023/09/20 13:40:00, 0.5,27.0
2023/09/20 13:50:00, 0.4,26.8
2023/09/20 14:00:00, 0.5,26.5
2023/09/20 14:10:00, 0.4,26.3
2023/09/20 14:20:00, 0.4,26.0
2023/09/20 14:30:00, 0.5,26.3
2023/09/20 14:40:00, 0.4,26.8
2023/09/20 14:50:00, 0.2,26.2
2023/09/20 15:00:00, 0.3,25.8
2023/09/20 15:10:00, 1.0,25.9
2023/09/20 15:20:00, 1.7,25.7
2023/09/20 15:30:00, 2.1,25.7
2023/09/20 15:40:00, 2.3,25.8
2023/09/20 15:50:00, 3.5,26.1
2023/09/20 16:00:00, 3.4,25.8
2023/09/20 16:10:00, 3.4,26.0
2023/09/20 16:20:00, 4.2,25.6
2023/09/20 16:30:00, 4.3,25.4
2023/09/20 16:40:00, 5.5,25.0
2023/09/20 16:50:00, 6.4,25.0
2023/09/20 17:00:00, 6.4,24.8
2023/09/20 17:10:00, 6.0,24.4
2023/09/20 17:20:00, 5.2,24.1
2023/09/20 17:30:00, 4.6,24.0
2023/09/20 17:40:00, 4.4,24.0
2023/09/20 17:50:00, 4.4,23.8
2023/09/20 18:00:00, 4.2,23.6
2023/09/20 18:10:00, 3.4,23.3
2023/09/20 18:20:00, 2.4,23.4
2023/09/20 18:30:00, 2.3,23.0
2023/09/20 18:40:00, 2.4,23.0
2023/09/20 18:50:00, 3.1,22.9
2023/09/20 19:00:00, 4.0,22.7
2023/09/20 19:10:00, 4.6,22.7
2023/09/20 19:20:00, 4.8,22.7
2023/09/20 19:30:00, 4.9,22.6
2023/09/20 19:40:00, 5.1,22.6
2023/09/20 19:50:00, 5.2,22.6
2023/09/20 20:00:00, 5.3,22.7
2023/09/20 20:10:00, 5.3,22.7
2023/09/20 20:20:00, 5.5,22.6
2023/09/20 20:30:00, 5.7,22.9
2023/09/20 20:40:00, 5.9,21.7
2023/09/20 20:50:00, 6.0,22.6
2023/09/20 21:00:00, 5.8,22.4
2023/09/20 21:10:00, 5.5,22.3
2023/09/20 21:20:00, 6.3,22.4
2023/09/20 21:30:00, 6.4,22.2
2023/09/20 21:40:00, 6.4,22.3
2023/09/20 21:50:00, 6.3,22.1
2023/09/20 22:00:00, 6.3,22.3
2023/09/20 22:10:00, 6.3,22.3
2023/09/20 22:20:00, 6.3,22.3
2023/09/20 22:30:00, 6.3,22.0
2023/09/20 22:40:00, 6.4,22.1
2023/09/20 22:50:00, 6.4,21.9
2023/09/20 23:00:00, 6.4,21.8
2023/09/20 23:10:00, 6.3,21.9
2023/09/20 23:20:00, 6.3,22.1
2023/09/20 23:30:00, 6.3,22.0
2023/09/20 23:40:00, 6.2,22.0
2023/09/20 23:50:00, 6.1,22.0
